Regional Weather Roundup
Issued by NWS

Home | Current Version | Previous Version | Graphics & Text | Print | Product List | Glossary On
Versions: 1 2 3 4 5 6 7 8 9 10 11 12 13 14 15 16 17 18 19 20 21 22 23 24 25 26 27 28 29 30 31 32 33 34 35 36 37 38 39 40 41 42 43 44 45 46 47 48 49 50
000
ASUS43 KFSD 192110
RWRSD

WEATHER ROUNDUP FOR SOUTH DAKOTA
NATIONAL WEATHER SERVICE SIOUX FALLS SD
300 PM CST THU JAN 19 2017

NOTE: "FAIR" INDICATES FEW OR NO CLOUDS BELOW 12,000 FEET WITH NO
SIGNIFICANT WEATHER AND/OR OBSTRUCTIONS TO VISIBILITY.


SDZ001>005-009-010-012>017-192200-
NORTHWEST AND NORTH CENTRAL SOUTH DAKOTA

CITY           SKY/WX    TMP DP  RH WIND       PRES   REMARKS
BUFFALO          N/A     34  25  69 W8        29.38F WCI  27
MOBRIDGE       CLOUDY    21  15  78 S7        29.47F WCI  12
$$

SDZ012>016-024>037-041>051-057-063-072>074-192200-
SOUTHWEST AND SOUTH CENTRAL SOUTH DAKOTA

CITY           SKY/WX    TMP DP  RH WIND       PRES   REMARKS
RAPID CTY ARPT SUNNY     34  25  69 S3        29.46S
PIERRE         CLOUDY    30  23  75 N3        29.49S
CUSTER         SUNNY     49  17  28 W12       29.46S
ELLSWORTH AFB  SUNNY     41  25  52 CALM      29.45S
PHILIP         CLOUDY    32  26  78 E3        29.46S
PINE RIDGE     SUNNY     41  27  57 SW14      29.46F
SPEARFISH      FAIR      46  25  42 SE3       29.46S
WINNER         FAIR      49  35  58 S14       29.48F
$$

SDZ004>011-016>023-039-040-192200-
NORTHEAST SOUTH DAKOTA

CITY           SKY/WX    TMP DP  RH WIND       PRES   REMARKS
ABERDEEN       FOG       33  31  92 S14       29.56F VSB 1/4 WCI  23
WATERTOWN      FOG       33  33 100 S12       29.60R VSB 1/4 WCI  24
BROOKINGS      FOG       35  34  96 S12       29.62R VSB 1/4 WCI  27
SISSETON         N/A     39  36  89 S10       29.58S
$$

SDZ017-020-022-023-036>040-048>070-192200-
SOUTHEAST SOUTH DAKOTA

CITY           SKY/WX    TMP DP  RH WIND       PRES   REMARKS
SIOUX FALLS    FOG       37  37 100 S9        29.64F VSB 1/2
HURON          FOG       35  35 100 SE10      29.57F VSB 1/2 WCI  27
CHAMBERLAIN    CLOUDY    44  40  86 SE9G16    29.52S
MITCHELL       CLOUDY    39  39 100 SE12      29.59S FOG
YANKTON        CLOUDY    43  37  81 SE10      29.61S
$$

ABBREVIATIONS USED IN REMARKS
   TC - TEMPERATURE IN CELSIUS
  WCI - WIND CHILL INDEX
   HX - HEAT INDEX
  VSB - VISIBILITY




USA.gov is the U.S. government's official web portal to all federal, state and local government web resources and services.